Weather observations for the past three days for
Yap Island - Yap Int. Airport
Metric (Imperial)
Date Time (+10) Wind (kph) Vis. (km) Weather Sky Cond. Temperature (ºC) Relative Humidity Wind Chill (°C) Heat Index (°C) Pressure Precipitation (cm)
Air Dwpt 6 hour altimeter (cm) sea level (mb) 1 hr 3 hr 6 hr
Max. Min.
31 22:54 Vrbl 11 19.31 Overcast FEW016 SCT130 OVC300 28.5 26.4 88% 35 76 1013.4
31 21:55 Vrbl 9 19.31 Overcast FEW016 SCT130 OVC300 28.5 26.3 29.5 28.3 88% 35 75.97 1013.0
31 20:50 Vrbl 11 19.31 Overcast FEW016 SCT130 OVC300 28.5 26.4 88% 35 75.92 1012.2
31 19:53 W 13 19.31 Overcast FEW016 SCT130 OVC300 28.5 26.1 87% 35 75.87 1011.5
31 18:51 Vrbl 11 19.31 Overcast FEW016 SCT130 OVC300 28.3 26.1 88% 34 75.79 1010.7
31 17:54 W 13 19.31 Overcast FEW016 SCT130 OVC300 28.6 26.3 87% 35 75.74 1010.0
31 16:54 Vrbl 11 19.31 Overcast FEW016 SCT130 OVC300 28.7 26.3 87% 35 75.74 1010.0
31 15:57 Vrbl 11 19.31 Overcast FEW016 SCT130 OVC300 29.5 26.6 29.9 29.3 84% 37 75.74 1010.0
31 14:52 W 13 19.31 Overcast FEW016 SCT130 OVC300 29.8 26.6 83% 38 75.79 1010.7
31 13:50 W 13 19.31 Overcast FEW016 SCT130 OVC300 29.3 26.4 84% 37 75.82 1011.0
31 12:52 W 19 19.31 Overcast FEW016 SCT130 OVC300 29.4 26.2 83% 37 75.9 1011.8
31 11:51 W 22 19.31 Overcast FEW017 SCT130 OVC300 29.7 25.4 78% 36 75.9 1012.0
31 10:52 W 19 19.31 Mostly Cloudy FEW017 BKN300 29.9 26.6 83% 38 75.9 1012.0
31 09:57 W 13 19.31 Mostly Cloudy FEW017 BKN300 29.3 26.1 29.3 27.4 83% 36 75.92 1012.2
31 08:52 W 13 19.31 Overcast SCT016 SCT130 OVC300 29 26.1 84% 36 75.92 1012.2
31 06:55 W 19 19.31 Mostly Cloudy SCT016 SCT130 BKN300 28.1 25.7 87% 33 75.79 1010.7
31 05:55 W 19 19.31 Mostly Cloudy SCT016 SCT130 BKN300 27.9 25.7 88% 33 75.74 1010.0
31 04:55 Vrbl 7 19.31 Mostly Cloudy SCT016 SCT130 BKN300 27.4 25.4 89% 32 75.72 1009.5
31 03:55 Vrbl 7 19.31 Mostly Cloudy SCT016 SCT130 BKN300 27.5 25.4 27.9 27.5 88% 32 75.69 1009.3
31 02:55 Vrbl 9 19.31 Mostly Cloudy SCT016 SCT130 BKN300 27.7 25.6 88% 33 75.72 1009.5
31 01:50 Vrbl 11 19.31 Mostly Cloudy SCT016 SCT130 BKN300 27.9 25.9 89% 33 75.74 1009.8
31 00:53 W 13 19.31 Mostly Cloudy SCT016 SCT130 BKN300 27.6 25.6 89% 32 75.79 1010.5
30 23:54 Vrbl 9 19.31 Mostly Cloudy FEW016 SCT130 BKN300 27.5 25.2 87% 32 75.82 1011.0
30 22:53 Vrbl 11 19.31 Overcast FEW016CB SCT130 OVC300 27.7 25.4 87% 32 75.87 1011.5
30 20:50 Vrbl 11 19.31 Overcast FEW016 SCT130 OVC300 28 25.5 86% 33 75.82 1011.0
30 19:54 Vrbl 9 19.31 Overcast FEW016 SCT130 OVC300 28.1 25.4 85% 33 75.77 1010.1
30 18:53 Vrbl 11 19.31 Overcast FEW016 BKN130 OVC300 28.3 25.5 85% 34 75.74 1010.0
30 17:53 Vrbl 9 19.31 Overcast FEW016 BKN130 OVC300 29.2 25.9 82% 36 75.69 1009.3
30 16:50 W 13 19.31 Overcast FEW016 BKN130 OVC300 30 25.8 78% 37 75.72 1009.5
30 15:54 W 15 19.31 Overcast FEW016 BKN130 OVC300 29.9 25.7 31.2 29.6 78% 37 75.74 1009.8
30 14:50 W 13 G 22 19.31 Overcast FEW016 BKN130 OVC300 30.1 26.4 81% 38 75.74 1010.0
30 13:58 W 17 G 26 19.31 Mostly Cloudy FEW016 SCT130 BKN300 30.1 26.2 80% 38 75.79 1010.5
30 12:56 W 17 G 24 19.31 Mostly Cloudy SCT016 BKN300 30 26.7 83% 38 75.82 1011.0
30 11:51 W 17 G 26 19.31 A Few Clouds FEW016 FEW300 31.2 26 74% 39 75.87 1011.7
30 10:50 W 13 G 28 19.31 A Few Clouds FEW016 FEW300 30.1 26.3 80% 38 75.9 1012.0
30 09:50 W 19 G 26 19.31 Partly Cloudy FEW016 SCT300 29.6 26.4 29.6 25.2 83% 37 75.9 1012.0 0.05
30 08:53 W 15 19.31 Mostly Cloudy FEW016 BKN300 29.3 26.1 83% 36 75.9 1012.0
30 06:58 Vrbl 7 19.31 Mostly Cloudy FEW016CB SCT130 BKN300 26.1 25 94% 28 75.87 1011.5 0.05
30 05:51 Vrbl 9 19.31 Mostly Cloudy FEW016 SCT130 BKN300 26.8 25.1 90% 30 75.84 1011.2
30 04:50 Vrbl 11 19.31 Overcast FEW016CB SCT130 OVC300 25.7 24.3 92% 27 75.82 1011.0
30 03:52 W 13 17.70 Light Showers Rain SCT016CB SCT130 OVC300 25.2 24 28.2 25.2 93% 26 75.84 1011.3 0.2
30 02:52 Vrbl 7 19.31 Partly Cloudy FEW016 SCT300 27.5 25.6 89% 32 75.87 1011.7
30 01:56 Vrbl 9 19.31 Mostly Cloudy SCT016 BKN300 27.6 25.6 89% 32 75.9 1012.0
30 00:55 Vrbl 7 19.31 Mostly Cloudy FEW016TCU SCT130 BKN300 28 25.5 86% 33 75.95 1012.5
29 23:55 Vrbl 7 19.31 Overcast FEW016 SCT130 OVC300 28 25.1 84% 33 75.95 1012.7
29 22:51 Vrbl 9 19.31 Overcast FEW016 SCT130 OVC300 28.2 24.9 82% 33 75.97 1012.9
29 21:50 Vrbl 9 19.31 Overcast FEW016 SCT130 OVC300 28.1 24.9 30 28 83% 33 75.97 1012.9
29 20:55 Vrbl 9 19.31 Mostly Cloudy FEW016 BKN300 28 25 84% 33 75.95 1012.5
29 19:52 Vrbl 9 19.31 Mostly Cloudy FEW016 BKN300 28.1 24.6 81% 33 75.87 1011.7
29 18:55 W 13 19.31 Mostly Cloudy FEW016 BKN300 28.2 24.6 81% 33 75.79 1010.7
29 17:53 W 13 19.31 Partly Cloudy FEW016 SCT300 28.8 24.9 79% 34 75.77 1010.1
29 16:54 W 13 19.31 Mostly Cloudy FEW016 BKN300 29.8 26.1 81% 37 75.77 1010.3
29 15:54 W 15 19.31 Mostly Cloudy FEW017 SCT040 BKN300 30 26 30.5 29.7 79% 37 75.74 1009.8
29 14:57 W 13 19.31 Mostly Cloudy FEW017 SCT040 BKN300 30.1 26 79% 38 75.74 1010.0
29 13:50 W 13 19.31 Mostly Cloudy FEW017 SCT040 BKN300 30.2 26.5 81% 38 75.79 1010.5
29 12:52 W 20 19.31 Partly Cloudy FEW017 SCT300 30.5 26.1 77% 38 75.84 1011.2
29 11:55 W 17 19.31 Partly Cloudy FEW017 SCT300 30.1 25.9 78% 37 75.87 1011.7
29 10:58 W 20 19.31 Mostly Cloudy FEW017 BKN300 30 26 79% 37 75.9 1011.8
29 09:55 W 19 19.31 Mostly Cloudy FEW016 BKN300 29.7 25.6 29.7 27.2 79% 36 75.9 1012.0
29 08:55 W 13 19.31 Mostly Cloudy FEW016 SCT130 BKN300 29.2 25.6 81% 36 75.9 1012.0
29 07:55 Vrbl 9 19.31 Mostly Cloudy FEW016 SCT130 BKN300 29.5 25.8 81% 36 75.9 1011.8
29 06:54 Vrbl 6 19.31 Overcast FEW016 SCT130 OVC300 27.2 25.5 90% 31 75.84 1011.2
29 05:54 Vrbl 6 19.31 Overcast FEW016 SCT130 OVC300 27.3 25.2 88% 31 75.84 1011.2
29 04:55 Vrbl 9 19.31 Overcast FEW016 SCT130 OVC300 27.5 25.4 88% 32 75.87 1011.7
29 03:55 Vrbl 9 19.31 Overcast FEW016 SCT130 OVC300 27.6 25.1 28.2 27.6 86% 32 75.9 1011.8
29 01:50 Vrbl 9 19.31 Overcast FEW016 BKN130 OVC300 28 25.3 85% 33 75.95 1012.7
29 00:51 Vrbl 11 19.31 Overcast FEW016 BKN130 OVC300 28 25.3 85% 33 76 1013.2
Date Time (+10) Wind (kph) Vis. (km) Weather Sky Cond. Air Dwpt Max. Min. Relative Humidity Wind Chill (°C) Heat Index (°C) altimeter (cm) sea level (mb) 1 hr 3 hr 6 hr
6 hour
Temperature (ºC) Pressure Precipitation (cm)